DW3823 Weather Reports


Display with metric or nautical units.
time (UTC)temp
F
wind
direction
speed
MPH
gust
MPH
rain 1hr
in
rain 24hr
in
rain mn
in
humidity
%
barometer
mb
20260502194019 59 333 2.0 8.0 0.00 0.00 0.00 44 1016.4
20260502193521 60 11 1.0 9.0 0.00 0.00 0.00 44 1016.4
20260502193023 61 47 3.0 9.0 0.00 0.00 0.00 42 1016.4
20260502192518 61 300 3.0 7.0 0.00 0.00 0.00 45 1016.4
20260502192018 59 292 2.0 7.0 0.00 0.00 0.00 45 1016.3
20260502191517 59 55 2.0 9.0 0.00 0.00 0.00 45 1016.4
20260502191017 60 76 3.0 9.0 0.00 0.00 0.00 44 1016.5
20260502190520 59 225 1.0 5.0 0.00 0.00 0.00 47 1016.6
20260502190017 59 287 1.0 5.0 0.00 0.00 0.00 44 1016.6
20260502185517 60 5 1.0 9.0 0.00 0.00 0.00 46 1016.6
20260502185016 61 261 2.0 6.0 0.00 0.00 0.00 44 1016.5
20260502184521 61 76 2.0 6.0 0.00 0.00 0.00 43 1016.5
20260502184016 60 55 3.0 11.0 0.00 0.00 0.00 47 1016.6
20260502183516 59 63 2.0 11.0 0.00 0.00 0.00 45 1016.6
20260502183016 59 96 1.0 6.0 0.00 0.00 0.00 46 1016.5
20260502182519 60 327 1.0 5.0 0.00 0.00 0.00 46 1016.6
20260502182015 60 51 2.0 8.0 0.00 0.00 0.00 44 1016.6
20260502181522 62 192 3.0 9.0 0.00 0.00 0.00 41 1016.6
20260502181015 61 201 3.0 9.0 0.00 0.00 0.00 44 1016.6
20260502180517 60 84 3.0 8.0 0.00 0.00 0.00 46 1016.6
20260502170511 61 327 1.0 8.0 0.00 0.00 0.00 43 1016.9
20260502164006 61 360 3.0 7.0 0.00 0.00 0.00 43 1017.2
20260502163506 60 84 1.0 6.0 0.00 0.00 0.00 46 1017.1
20260502163007 60 65 3.0 6.0 0.00 0.00 0.00 43 1017.2
20260502162507 60 145 2.0 6.0 0.00 0.00 0.00 45 1017.3
20260502162004 60 19 1.0 6.0 0.00 0.00 0.00 49 1017.4
20260502161502 60 33 2.0 6.0 0.00 0.00 0.00 45 1017.5
20260502161001 59 57 2.0 8.0 0.00 0.00 0.00 43 1017.4
20260502160604 59 35 2.0 8.0 0.00 0.00 0.00 46 1017.3
20260502160107 58 268 2.0 9.0 0.00 0.00 0.00 47 1017.4
20260502152055 58 64 2.0 8.0 0.00 0.00 0.00 48 1017.2
20260502151609 57 31 1.0 5.0 0.00 0.00 0.00 48 1017.3
20260502151054 57 127 1.0 7.0 0.00 0.00 0.00 49 1017.3
20260502150553 57 270 3.0 7.0 0.00 0.00 0.00 51 1017.3
20260502150125 57 319 1.0 8.0 0.00 0.00 0.00 52 1017.2
20260502130520 51 49 0.0 3.0 0.00 0.00 0.00 72 1017.1
20260502123518 47 294 1.0 3.0 0.00 0.00 0.00 80 1017.1
20260502123011 46 215 0.0 2.0 0.00 0.00 0.00 83 1016.9
20260502122510 46 218 0.0 2.0 0.00 0.00 0.00 83 1016.9
20260502122009 45 218 0.0 2.0 0.00 0.00 0.00 84 1017.0
20260502121509 44 325 0.0 2.0 0.00 0.00 0.00 85 1016.9
20260502121006 44 325 0.0 2.0 0.00 0.00 0.00 86 1016.9
20260502120511 44 327 0.0 1.0 0.00 0.00 0.00 88 1016.9
20260502115505 42 327 0.0 1.0 0.00 0.00 0.00 91 1016.9
20260502115004 42 327 0.0 0.0 0.00 0.00 0.00 91 1016.9
20260502114504 41 327 0.0 0.0 0.00 0.00 0.00 91 1016.8
20260502114003 40 327 0.0 0.0 0.00 0.00 0.00 91 1016.7
20260502113503 40 327 0.0 0.0 0.00 0.00 0.00 91 1016.6
20260502113001 40 327 0.0 0.0 0.00 0.00 0.00 90 1016.4
20260502112559 39 327 0.0 0.0 0.00 0.00 0.00 90 1016.4
20260502112100 39 327 0.0 0.0 0.00 0.00 0.00 90 1016.2
20260502111606 39 327 0.0 0.0 0.00 0.00 0.00 89 1016.2
20260502111100 39 327 0.0 0.0 0.00 0.00 0.00 89 1016.1
20260502110556 40 327 0.0 1.0 0.00 0.00 0.00 89 1016.4
20260502110104 40 327 0.0 1.0 0.00 0.00 0.00 89 1016.4
20260502105555 40 327 0.0 0.0 0.00 0.00 0.00 89 1016.4
20260502105054 40 327 0.0 0.0 0.00 0.00 0.00 88 1016.5
20260502104553 40 327 0.0 0.0 0.00 0.00 0.00 88 1016.5
20260502104055 40 327 0.0 0.0 0.00 0.00 0.00 88 1016.5
20260502103552 41 327 0.0 0.0 0.00 0.00 0.00 88 1016.3
20260502103111 41 327 0.0 0.0 0.00 0.00 0.00 87 1016.2
20260502102552 41 327 0.0 0.0 0.00 0.00 0.00 87 1016.3
20260502102051 41 327 0.0 0.0 0.00 0.00 0.00 87 1016.1
20260502101556 41 327 0.0 0.0 0.00 0.00 0.00 87 1016.2
20260502101049 41 327 0.0 0.0 0.00 0.00 0.00 87 1016.2
20260502100549 41 327 0.0 0.0 0.00 0.00 0.00 87 1016.2
20260502091044 42 327 0.0 0.0 0.00 0.00 0.00 86 1015.6
20260502090544 42 327 0.0 1.0 0.00 0.00 0.00 86 1015.7
20260502071534 43 327 0.0 0.0 0.00 0.00 0.00 80 1016.6
20260502071034 44 327 0.0 0.0 0.00 0.00 0.00 79 1016.5
20260502070531 44 327 0.0 0.0 0.00 0.00 0.00 79 1016.4
20260502070030 44 327 0.0 0.0 0.00 0.00 0.00 80 1016.3
20260502065531 43 327 0.0 0.0 0.00 0.00 0.00 80 1016.3
20260502065029 43 327 0.0 0.0 0.00 0.00 0.00 80 1016.4
20260502064536 43 327 0.0 0.0 0.00 0.00 0.00 80 1016.7
20260502064029 43 327 0.0 0.0 0.00 0.00 0.00 80 1016.5
20260502063530 43 327 0.0 0.0 0.00 0.00 0.00 80 1016.5
20260502063029 43 327 0.0 0.0 0.00 0.00 0.00 79 1016.6
20260502062528 43 327 0.0 0.0 0.00 0.00 0.00 79 1016.6
20260502062031 43 327 0.0 0.0 0.00 0.00 0.00 78 1016.6
20260502061527 43 327 0.0 0.0 0.00 0.00 0.00 77 1016.7
20260502061026 44 327 0.0 0.0 0.00 0.00 0.00 77 1016.7
20260502060525 44 327 0.0 0.0 0.00 0.00 0.00 76 1016.8
20260502060024 44 327 0.0 0.0 0.00 0.00 0.00 75 1016.8
20260502055524 44 327 0.0 0.0 0.00 0.00 0.00 74 1016.8
20260502055024 45 327 0.0 0.0 0.00 0.00 0.00 72 1016.8
20260502054524 45 327 0.0 0.0 0.00 0.00 0.00 72 1016.7
20260502054021 45 327 0.0 0.0 0.00 0.00 0.00 72 1016.6
20260502053520 46 327 0.0 1.0 0.00 0.00 0.00 71 1016.7
20260502053019 46 327 0.0 0.0 0.00 0.00 0.00 70 1016.5
20260502052517 47 327 0.0 2.0 0.00 0.00 0.00 69 1016.4
20260502052021 47 326 0.0 2.0 0.00 0.00 0.00 68 1016.3
20260502051519 47 325 0.0 2.0 0.00 0.00 0.00 67 1016.3
20260502051014 48 325 0.0 3.0 0.00 0.00 0.00 66 1016.4
20260502050514 48 291 1.0 4.0 0.00 0.00 0.00 66 1016.4
20260502050012 48 38 1.0 4.0 0.00 0.00 0.00 65 1016.4
20260502045514 48 53 0.0 5.0 0.00 0.00 0.00 66 1016.4
20260502045013 48 56 0.0 5.0 0.00 0.00 0.00 66 1016.4
20260502044512 48 115 0.0 4.0 0.00 0.00 0.00 68 1016.4
20260502044011 48 5 0.0 2.0 0.00 0.00 0.00 66 1016.5
20260502043511 48 5 0.0 2.0 0.00 0.00 0.00 68 1016.5
20260502043013 48 5 0.0 2.0 0.00 0.00 0.00 67 1016.5
20260502042511 48 111 0.0 2.0 0.00 0.00 0.00 68 1016.4
20260502042011 48 111 0.0 2.0 0.00 0.00 0.00 66 1016.4
20260502041510 48 59 0.0 3.0 0.00 0.00 0.00 70 1016.6
20260502041011 48 56 0.0 3.0 0.00 0.00 0.00 69 1016.5
20260502040510 48 326 0.0 3.0 0.00 0.00 0.00 70 1016.6
20260502040010 48 326 0.0 3.0 0.00 0.00 0.00 70 1016.7
20260502035509 48 277 0.0 3.0 0.00 0.00 0.00 69 1016.7
20260502035010 48 277 0.0 3.0 0.00 0.00 0.00 66 1016.8
20260502034510 49 219 0.0 2.0 0.00 0.00 0.00 67 1016.8
20260502034012 48 90 0.0 3.0 0.00 0.00 0.00 68 1016.9
20260502033508 49 89 0.0 3.0 0.00 0.00 0.00 69 1016.8
20260502033009 49 355 1.0 4.0 0.00 0.00 0.00 67 1016.8
20260502032509 48 327 0.0 4.0 0.00 0.00 0.00 70 1016.8
20260502032008 48 298 0.0 3.0 0.00 0.00 0.00 71 1016.9
20260502031508 48 316 0.0 2.0 0.00 0.00 0.00 70 1017.0
20260502031008 49 311 0.0 3.0 0.00 0.00 0.00 71 1017.0
20260502030508 48 258 0.0 1.0 0.00 0.00 0.00 71 1016.9
20260502030008 48 258 0.0 1.0 0.00 0.00 0.00 68 1017.1
20260502025507 48 258 0.0 1.0 0.00 0.00 0.00 66 1017.0
20260502025007 49 258 0.0 0.0 0.00 0.00 0.00 67 1017.0
20260502024507 49 258 0.0 0.0 0.00 0.00 0.00 67 1016.9
20260502024008 49 258 0.0 1.0 0.00 0.00 0.00 69 1016.8
20260502023505 49 258 0.0 1.0 0.00 0.00 0.00 69 1016.7
20260502023003 49 258 0.0 0.0 0.00 0.00 0.00 70 1016.7
20260502022603 49 258 0.0 0.0 0.00 0.00 0.00 70 1016.7
20260502022002 49 258 0.0 0.0 0.00 0.00 0.00 69 1016.7
20260502021502 49 258 0.0 0.0 0.00 0.00 0.00 68 1016.6
20260502021002 49 258 0.0 0.0 0.00 0.00 0.00 69 1016.5
20260502020502 49 258 0.0 0.0 0.00 0.00 0.00 70 1016.5
20260502020002 49 258 0.0 0.0 0.00 0.00 0.00 69 1016.5
20260502015504 49 258 0.0 0.0 0.00 0.00 0.00 67 1016.6
20260502015000 50 258 0.0 0.0 0.00 0.00 0.00 70 1016.5
20260502014500 50 258 0.0 0.0 0.00 0.00 0.00 68 1016.5
20260502014001 50 258 0.0 0.0 0.00 0.00 0.00 66 1016.4
20260502013502 50 258 0.0 0.0 0.00 0.00 0.00 66 1016.4
20260502013101 51 258 0.0 0.0 0.00 0.00 0.00 65 1016.4
20260502012600 51 258 0.0 0.0 0.00 0.00 0.00 62 1016.4
20260502012100 51 258 0.0 0.0 0.00 0.00 0.00 61 1016.4
20260502011558 51 258 0.0 1.0 0.00 0.00 0.00 62 1016.3
20260502011058 51 258 0.0 1.0 0.00 0.00 0.00 63 1016.0
20260502010558 51 258 0.0 1.0 0.00 0.00 0.00 65 1015.7
20260502010059 52 258 0.0 1.0 0.00 0.00 0.00 65 1015.6
20260502005558 52 258 0.0 0.0 0.00 0.00 0.00 63 1015.6
20260502005101 52 258 0.0 1.0 0.00 0.00 0.00 62 1015.5
20260502004558 53 258 0.0 1.0 0.00 0.00 0.00 61 1015.3
20260502004059 53 258 0.0 1.0 0.00 0.00 0.00 60 1015.2
20260502003558 54 258 0.0 1.0 0.00 0.00 0.00 58 1015.2
20260502003057 55 258 0.0 1.0 0.00 0.00 0.00 54 1015.0
20260502002556 55 258 0.0 1.0 0.00 0.00 0.00 56 1014.9
20260502002056 55 258 0.0 3.0 0.00 0.00 0.00 58 1014.8
20260502001556 56 258 0.0 6.0 0.00 0.00 0.00 56 1014.6
20260502001057 56 47 1.0 6.0 0.00 0.00 0.00 56 1014.5
20260502000556 56 347 0.0 2.0 0.00 0.00 0.00 54 1014.5
20260502000057 57 347 0.0 2.0 0.00 0.00 0.00 55 1014.4
20260501235555 57 80 0.0 3.0 0.00 0.00 0.00 53 1014.4
20260501235055 58 80 1.0 3.0 0.00 0.00 0.00 53 1014.4
20260501234555 58 80 0.0 5.0 0.00 0.00 0.00 52 1014.3
20260501234055 58 347 1.0 5.0 0.00 0.00 0.00 52 1014.2
20260501233555 58 349 1.0 4.0 0.00 0.00 0.00 53 1014.3
20260501233058 58 315 1.0 4.0 0.00 0.00 0.00 56 1014.2
20260501232556 59 287 0.0 5.0 0.00 0.00 0.00 55 1014.2
20260501232054 59 295 0.0 6.0 0.00 0.00 0.00 55 1014.2
20260501231554 59 225 1.0 8.0 0.00 0.00 0.00 52 1014.3
20260501231055 60 16 1.0 8.0 0.00 0.00 0.00 52 1014.1
20260501230554 60 229 1.0 8.0 0.00 0.00 0.00 53 1014.1
20260501230054 60 192 2.0 8.0 0.00 0.00 0.00 55 1014.1
20260501225553 60 229 1.0 7.0 0.00 0.00 0.00 53 1013.9
20260501225053 60 360 2.0 7.0 0.00 0.00 0.00 53 1013.8
20260501224553 61 298 1.0 8.0 0.00 0.00 0.00 54 1013.8
20260501224053 61 86 2.0 8.0 0.00 0.00 0.00 53 1013.8
20260501223553 61 293 1.0 3.0 0.00 0.00 0.00 54 1013.7
20260501223102 61 5 1.0 6.0 0.00 0.00 0.00 55 1013.7
20260501222555 62 10 2.0 9.0 0.00 0.00 0.00 55 1013.8
20260501222052 62 315 4.0 9.0 0.00 0.00 0.00 53 1013.6
20260501221551 62 296 1.0 8.0 0.00 0.00 0.00 56 1013.8
20260501221054 62 57 2.0 9.0 0.00 0.00 0.00 56 1013.7
20260501220551 62 55 0.0 9.0 0.00 0.00 0.00 56 1013.7
20260501220051 63 99 2.0 8.0 0.00 0.00 0.00 56 1013.8
20260501215553 63 68 3.0 8.0 0.00 0.00 0.00 54 1013.8
20260501215055 63 59 3.0 11.0 0.00 0.00 0.00 56 1013.9
20260501214551 63 283 2.0 11.0 0.00 0.00 0.00 55 1014.0
20260501214049 63 293 2.0 9.0 0.00 0.00 0.00 55 1013.9
20260501213549 63 250 3.0 9.0 0.00 0.00 0.00 53 1014.0
20260501213100 63 261 1.0 9.0 0.00 0.00 0.00 55 1014.1
20260501212549 63 331 2.0 10.0 0.00 0.00 0.00 54 1014.1
20260501212048 64 252 2.0 11.0 0.00 0.00 0.00 54 1014.0
20260501211557 64 26 3.0 11.0 0.00 0.00 0.00 54 1013.8
20260501211047 64 271 2.0 7.0 0.00 0.00 0.00 54 1013.9
20260501210548 64 258 4.0 7.0 0.00 0.00 0.00 53 1013.9
20260501210047 64 304 2.0 9.0 0.00 0.00 0.00 52 1013.8
20260501205547 65 268 2.0 11.0 0.00 0.00 0.00 52 1013.9
20260501205048 65 235 2.0 11.0 0.00 0.00 0.00 52 1013.8
20260501204557 65 254 4.0 8.0 0.00 0.00 0.00 52 1013.9
20260501204049 65 300 2.0 9.0 0.00 0.00 0.00 56 1013.9
20260501203544 65 5 3.0 9.0 0.00 0.00 0.00 52 1014.2
20260501203055 65 41 3.0 12.0 0.00 0.00 0.00 54 1014.2
20260501202543 66 228 4.0 13.0 0.00 0.00 0.00 51 1014.3
20260501202043 66 63 5.0 13.0 0.00 0.00 0.00 51 1014.3
20260501201543 66 12 3.0 9.0 0.00 0.00 0.00 51 1014.5
20260501201044 66 77 1.0 10.0 0.00 0.00 0.00 51 1014.5
20260501200542 65 270 3.0 13.0 0.00 0.00 0.00 50 1014.6
20260501200041 66 333 3.0 13.0 0.00 0.00 0.00 51 1014.6
20260501195541 66 274 3.0 12.0 0.00 0.00 0.00 49 1014.7
20260501195039 66 5 3.0 8.0 0.00 0.00 0.00 50 1014.7
20260501194540 66 311 3.0 8.0 0.00 0.00 0.00 47 1014.7